Home   Weather   Dachau   Past weeks

Flag for Germany Past Weather in Dachau, Bavaria, Germany — Yesterday and Last 2 Weeks

50 °F

Scattered clouds.

Feels Like: 49 °F
Forecast: 34 / 56 °F
Wind: 3 mph from North

Location: Oberpfaffenhofen

Current Time: Oct 27, 2016 at 3:05:53 PM

Latest Report: Oct 27, 2016 at 2:20 PM

Visibility: N/A

Pressure: 30.51 "Hg (28.72 "Hg at 502m altitude)

Humidity: 76%

Dew Point: 43 °F

Location of DachauLocation

Past Weather in Dachau — Graph


Dachau Temperature Yesterday

Maximum temperature yesterday: 54 °F (at 3:20 PM)
Minimum temperature yesterday: 48 °F (at 9:20 AM)
Average temperature yesterday: 51 °F

High & Low Weather Summary for the Past Weeks

High66 °F (Oct 24, 3:20 PM)100% (Oct 13, 6:50 AM)30.54 "Hg (Oct 13, 6:50 AM)
Low34 °F (Oct 13, 6:50 AM)56% (Oct 24, 12:20 PM)29.71 "Hg (Oct 14, 4:20 PM)
Average49 °F86%30.07 "Hg
* Reported Oct 12 1:20 PM — Oct 27 1:50 PM, Dachau, Weather by CustomWeather, © 2016

Note: Actual official high and low records may vary slightly from our data, if they occured in-between our weather recording intervals... More about our weather records


Dachau Weather History for the Previous 24 Hours

Scroll right to see more
Time TempWeatherWind HumidityBarometerVisibility
1:50 PM
Thu, Oct 27
50 °FScattered clouds.5 mph76%30.54 "HgN/A
1:20 PM50 °FPartly sunny.7 mph76%30.54 "Hg6 mi
12:50 PM48 °FBroken clouds.7 mph87%30.54 "Hg5 mi
12:20 PM46 °FBroken clouds.6 mph93%30.54 "Hg4 mi
11:50 AM46 °FBroken clouds.3 mph93%30.54 "Hg4 mi
11:20 AM46 °FFog.5 mph100%30.54 "Hg3 mi
10:50 AM46 °FFog.3 mph100%30.51 "Hg3 mi
10:20 AM46 °FFog.2 mph93%30.51 "Hg3 mi
9:50 AM45 °FFog.2 mph100%30.51 "Hg3 mi
9:20 AM45 °FFog.No wind100%30.51 "Hg2 mi
8:50 AM43 °FFog.No wind100%30.48 "Hg2 mi
8:20 AM43 °FFog.2 mph100%30.48 "Hg2 mi
7:50 AM41 °FFog.2 mph100%30.48 "Hg3 mi
7:20 AM39 °FFog.1 mph100%30.45 "Hg3 mi
6:50 AM39 °FFog.No wind100%30.45 "Hg3 mi
6:50 PM
Wed, Oct 26
50 °FPartly cloudy.7 mph94%30.36 "Hg5 mi
6:20 PM52 °FPassing clouds.7 mph88%30.33 "HgN/A
5:50 PM52 °FPartly sunny.6 mph88%30.33 "HgN/A
5:20 PM52 °FPartly sunny.6 mph88%30.33 "HgN/A
4:50 PM52 °FBroken clouds.7 mph88%30.33 "HgN/A
4:20 PM54 °FBroken clouds.8 mph82%30.33 "HgN/A
3:50 PM54 °FBroken clouds.6 mph88%30.33 "HgN/A
3:20 PM54 °FBroken clouds.6 mph88%30.30 "HgN/A
Weather by CustomWeather, © 2016

See weather overviewHow to use our weather pages